Content
SEND FEEDBACK

Daily
Averages
Monthly
Summary
United States of America

MANGILAO, GUAM


Home > North America > United States > Guam
Elevation: 60 feet     Latitude: 13 27N     Longitude: 144 49E

WEATHER
 
SELECT A DAY
Number of Records: 342,702;   Date Range: 1/1/95 - 9/21/14
 
SHARE

PRINT THIS DATA

[ ← Previous Day ]
WEATHER ALMANAC - JULY 26, 2013
[ Next Day → ]
[ °C ]   °F
Weather ElementAverageHighLow
Temperature80.4 °F87.1 °F (12:55 pm)76.6 °F (2:55 am)
Dewpoint75.8 °F80.6 °F (6:17 pm)63.5 °F (5:55 am)
Humidity86.1 %95 % (8:55 pm)59 % (5:55 am)
Barometer29.82 in29.88 in (10:55 pm)29.79 in (3:55 pm)
Wind Speed10 mph18.4 mph (2:02 am)
Wind Gust28.8 mph (2:28 pm)
Weather ElementAverage
Visibility7.5 mi
Wind DirectionESE (114.9 °)

Weather ElementTotal
Precipitation0.41 in
Cooling Degree Days16.9 (Base 65)
Growing Degree Days31.9 (Base 50)
Averaged from 68 records on July 26, 2013
WEATHER CONDITIONS BREAKOUT
WIND DIRECTION BREAKOUT
WEATHER BY HOUR - JULY 26, 2013
[ °C ]   °F
Local TimeTemperatureDewpointHumidityBarometerVisibilityWind DirectionWind SpeedGust SpeedPrecipitationEventsConditions
12:11 AM78.8 °F73.4 °F83 %29.83 in10.0 miEast (90°)4.6 mphMostly Cloudy
12:45 AM80.6 °F75.2 °F84 %29.82 in10.0 miESE (110°)8.1 mphScattered Clouds
12:55 AM80.6 °F75.6 °F85 %29.82 in10.0 miESE (120°)9.2 mph0.00 inMostly Cloudy
12:57 AM80.6 °F75.2 °F84 %29.82 in10.0 miESE (120°)10.4 mphMostly Cloudy
12:58 AM80.6 °F75.2 °F84 %29.82 in10.0 miESE (120°)9.2 mphMostly Cloudy
1:47 AM80.6 °F75.2 °F84 %29.80 in10.0 miESE (120°)8.1 mphScattered Clouds
1:55 AM80.4 °F76.5 °F88 %29.80 in10.0 miESE (120°)9.2 mphScattered Clouds
2:00 AM80.6 °F77.0 °F89 %29.80 in6.0 miSE (140°)13.8 mph24.2 mphRainLight Rain
2:02 AM80.6 °F77.0 °F89 %29.80 in2.5 miSE (130°)18.4 mph24.2 mphRainLight Rain
2:03 AM80.6 °F75.2 °F84 %29.80 in1.8 miSE (130°)18.4 mph24.2 mphRainRain
2:05 AM78.8 °F75.2 °F89 %29.81 in1.2 miSE (140°)15.0 mph24.2 mphRainHeavy Rain
2:08 AM78.8 °F75.2 °F89 %29.81 in1.0 miESE (120°)13.8 mph24.2 mphRainHeavy Rain
2:09 AM78.8 °F75.2 °F89 %29.81 in1.0 miESE (120°)13.8 mph24.2 mphRainHeavy Rain
2:11 AM77.0 °F75.2 °F94 %29.81 in1.0 miSE (130°)10.4 mphRainHeavy Rain
2:12 AM77.0 °F75.2 °F94 %29.81 in1.2 miSE (130°)9.2 mphRainHeavy Rain
2:13 AM77.0 °F75.2 °F94 %29.81 in1.5 miSE (130°)9.2 mphRainHeavy Rain
2:15 AM77.0 °F75.2 °F94 %29.81 in2.0 miSE (130°)9.2 mphRainLight Rain
2:16 AM77.0 °F75.2 °F94 %29.81 in2.5 miSE (130°)8.1 mphRainLight Rain
2:18 AM77.0 °F75.2 °F94 %29.81 in4.0 miSE (130°)8.1 mphRainLight Rain
2:21 AM78.8 °F75.2 °F89 %29.81 in9.0 miSE (130°)8.1 mphMostly Cloudy
2:34 AM78.8 °F73.4 °F83 %29.80 in3.0 miESE (120°)18.4 mphRainLight Rain
2:35 AM78.8 °F73.4 °F83 %29.80 in2.5 miESE (120°)17.3 mphRainHeavy Rain
2:36 AM78.8 °F73.4 °F83 %29.80 in1.8 miESE (110°)15.0 mph19.6 mphRainHeavy Rain
2:39 AM77.0 °F73.4 °F89 %29.80 in1.5 miESE (110°)11.5 mph19.6 mphRainHeavy Rain
2:41 AM77.0 °F73.4 °F89 %29.80 in1.5 miEast (100°)9.2 mphRain-ThunderstormThunderstorms and Rain
2:44 AM77.0 °F71.6 °F83 %29.80 in2.0 miEast (90°)9.2 mphRain-ThunderstormLight Thunderstorms and Rain
2:45 AM77.0 °F71.6 °F83 %29.80 in2.5 miEast (90°)9.2 mphRain-ThunderstormLight Thunderstorms and Rain
2:46 AM77.0 °F71.6 °F83 %29.80 in3.0 miEast (90°)9.2 mphRain-ThunderstormLight Thunderstorms and Rain
2:55 AM76.6 °F69.1 °F77 %29.81 in7.0 miESE (120°)8.1 mph0.41 inRain-ThunderstormLight Thunderstorms and Rain
2:56 AM77.0 °F68.0 °F74 %29.81 in7.0 miESE (120°)9.2 mphRainLight Rain
2:57 AM77.0 °F68.0 °F74 %29.81 in8.0 miESE (120°)8.1 mphRainLight Rain
3:03 AM77.0 °F66.2 °F69 %29.81 in10.0 miESE (120°)8.1 mphScattered Clouds
3:55 AM77.9 °F66.7 °F68 %29.80 in10.0 miESE (120°)9.2 mph0.00 inClear
4:55 AM78.3 °F72.9 °F83 %29.80 in10.0 miESE (120°)6.9 mphClear
5:55 AM78.8 °F63.5 °F59 %29.82 in10.0 miSE (130°)5.8 mphClear
6:55 AM79.5 °F74.3 °F84 %29.82 in10.0 miSE (130°)6.9 mphPartly Cloudy
7:55 AM82.2 °F76.3 °F82 %29.84 in10.0 miESE (110°)8.1 mphPartly Cloudy
8:55 AM84.2 °F77.4 °F80 %29.85 in10.0 miSE (130°)9.2 mphPartly Cloudy
9:42 AM84.2 °F77.0 °F79 %29.86 in10.0 miSE (140°)11.5 mphMostly Cloudy
9:55 AM85.3 °F77.9 °F78 %29.86 in10.0 miESE (110°)11.5 mphMostly Cloudy
10:01 AM84.2 °F78.8 °F84 %29.85 in10.0 miSE (130°)11.5 mphScattered Clouds
10:55 AM84.7 °F78.1 °F80 %29.84 in10.0 miESE (110°)10.4 mphScattered Clouds
11:55 AM85.3 °F79.0 °F81 %29.83 in10.0 miEast (100°)9.2 mphPartly Cloudy
12:55 PM87.1 °F79.5 °F78 %29.81 in10.0 miESE (120°)13.8 mphPartly Cloudy
1:55 PM86.0 °F79.9 °F82 %29.81 in10.0 miESE (120°)15.0 mphPartly Cloudy
2:28 PM84.2 °F78.8 °F84 %29.80 in9.0 miEast (100°)15.0 mph28.8 mphRainLight Rain
2:38 PM82.4 °F78.8 °F89 %29.80 in7.0 miESE (110°)8.1 mphPartly Cloudy
2:55 PM83.5 °F79.5 °F88 %29.80 in10.0 miESE (120°)12.7 mph0.00 inClear
3:55 PM82.2 °F78.6 °F89 %29.79 in10.0 miSE (130°)10.4 mphClear
4:55 PM83.5 °F79.7 °F88 %29.79 in10.0 miESE (120°)9.2 mphClear
5:55 PM82.9 °F78.8 °F87 %29.81 in10.0 miSE (130°)9.2 mphPartly Cloudy
6:11 PM84.2 °F78.8 °F84 %29.82 in10.0 miEast (100°)9.2 mphMostly Cloudy
6:17 PM82.4 °F80.6 °F94 %29.82 in10.0 miESE (110°)8.1 mphScattered Clouds
6:55 PM81.9 °F78.6 °F90 %29.83 in10.0 miESE (120°)10.4 mphPartly Cloudy
7:55 PM81.5 °F79.0 °F92 %29.85 in10.0 miEast (100°)8.1 mphScattered Clouds
8:03 PM82.4 °F78.8 °F89 %29.85 in10.0 miESE (120°)8.1 mphMostly Cloudy
8:14 PM82.4 °F78.8 °F89 %29.86 in10.0 miESE (120°)9.2 mphScattered Clouds
8:55 PM81.1 °F79.5 °F95 %29.86 in10.0 miEast (100°)8.1 mphPartly Cloudy
9:55 PM80.8 °F78.6 °F93 %29.87 in10.0 miEast (100°)6.9 mphScattered Clouds
9:59 PM80.6 °F78.8 °F94 %29.87 in10.0 miEast (100°)6.9 mphMostly Cloudy
10:42 PM80.6 °F78.8 °F94 %29.87 in10.0 miESE (110°)8.1 mphScattered Clouds
10:55 PM80.8 °F78.4 °F93 %29.88 in10.0 miEast (90°)9.2 mphScattered Clouds
11:18 PM80.6 °F78.8 °F94 %29.88 in10.0 miEast (100°)6.9 mphMostly Cloudy
11:22 PM80.6 °F78.8 °F94 %29.88 in10.0 miEast (100°)9.2 mphScattered Clouds
11:29 PM80.6 °F78.8 °F94 %29.88 in10.0 miEast (90°)9.2 mphMostly Cloudy
11:53 PM80.6 °F78.8 °F94 %29.87 in10.0 miEast (90°)6.9 mphMostly Cloudy
11:54 PM80.6 °F78.8 °F94 %29.87 in10.0 miEast (90°)8.1 mphMostly Cloudy
11:55 PM80.6 °F78.6 °F94 %29.87 in10.0 miEast (90°)8.1 mphMostly Cloudy
Hourly data recorded from PGUA, located miles away from Mangilao, Guam







STORIES FROM OUR PARTNERS